Location: Spring Creek
(38.2870°N, 100.2160°W)
Time: 09:06:03
(UTC+00:00)

Lacrosse 4 Rocket - Pass Details

Date: 08 May 2021
Orbit: 541 x 616 km, 68.0° (Epoch: 21 June)

Event Time Altitude Azimuth Distance (km) Brightness Sun altitude
Exits shadow 09:11:44 17° 135° (SE) 1,559 3.5 -23.8°
Maximum altitude 09:13:20 21° 107° (ESE) 1,406 3.6 -23.6°
Drops below altitude 10° 09:16:38 10° 59° (ENE) 1,972 5.1 -23.1°
Sets 09:19:19 0° 43° (NE) 2,874 6.5 -22.8°
